User: anonymous   Login
Location: Broad Creek
(39.7000°N, 76.2570°W)
Time: 05:54:40
(UTC-04:00)
Language:

ETS-7 - Orbit

View from above orbital plane
View from above orbital plane
View from above satellite
View from above satellite

Ground track
Ground track

The orbit data is extracted from the following two-line orbital elements,

1 25064U 97074B   15241.36497767  .00097658  00000-0  41173-3 0  9990
2 25064 034.9462 222.0098 0003777 260.3337 217.1051 15.84137390989743
Epoch (UTC): 29 August 2015 08:45:34
Eccentricity: 0.0003777
inclination: 34.9462°
perigee height: 316 km
apogee height: 321 km
right ascension of ascending node: 222.0098°
argument of perigee: 260.3337°
revolutions per day: 15.84137390
mean anomaly at epoch: 217.1051°
orbit number at epoch: 98974

The dashed part of the orbit path shows where the satellite is in the earth's shadow,  

DLR